sat.trackr.live / text

‹ back to catalog

STARLINK-37474

NORAD 69167 · 2026-111V

PAYLOAD ACTIVE UNKNOWN

§ Identity

Operator
Country
US
Launch date
2026-05-21
Launch site
AFETR
Launch vehicle
Mass (kg)
RCS (m²)

Purposes: comms

External: N2YO · Heavens-Above · Gunter

§ Orbital elements

Epoch: 2026-09-20T00:03:20.986272Z

Period
93.85 min
Inclination
53.1593°
Eccentricity
0.0000941
Mean motion
15.34400903 rev/d
Perigee alt
462.1 km
Apogee alt
463.3 km
Semi-major
6,840.8 km
B*
4.0552e-4
RAAN
67.9480°
Arg perigee
79.2455°
Mean anomaly
280.8653°
Rev number
1,882

§ Raw data

STARLINK-374741 69167U 26111V   26263.00232623  .00013350  00000+0  40552-3 0  99972 69167  53.1593  67.9480 0000941  79.2455 280.8653 15.34400903 18827

JSON: /api/v1/satellites/69167 · /tle

For live sub-satellite position, see the globe view (requires WebGL).

§ Visibility from observer

Set your observer location to see the next 7 days of passes ≥ 10°. The values pass through the URL so the page stays shareable.

No JS? Fill the form by hand. The geolocation button needs JavaScript.